Tracking 19164 objects as of 21-May-2018
HD Live streaming from Space Station
objects crossing your sky now

EUTE 48A (HB2)

Track EUTE 48A (HB2) now!
EUTE 48A (HB2) is classified as:


NORAD ID: 24665
Int'l Code: 1996-067A
Perigee: 36,294.4 km
Apogee: 36,370.1 km
Inclination: 6.9 °
Period: 1,463.7 minutes
Semi major axis: 42703 km
RCS: 0.003 m2 (small)
Launch date: November 21, 1996
Source: European Telecommunications Satellite Organization (EUTE)
Launch site: AIR FORCE EASTERN TEST RANGE (AFETR)

Full coverage of Europe, Middle East, parts of Africa and Asia; 20 active channels
aabbcc
Your satellite tracking list
Your tracking list is empty




NASA's NSSDC Master Catalog

Two Line Element Set (TLE):
1 24665U 96067A   18141.40609461 -.00000036  00000-0  00000+0 0  9995
2 24665   6.9282  53.2401 0008867  38.1194 204.3150  0.98381080 79033
Source of the keplerian elements: AFSPC